Regional Weather Roundup
Issued by NWS

Home | Current Version | Previous Version | Text Only | Print | Product List | Glossary On
Versions: 1 2 3 4 5 6 7 8 9 10 11 12 13 14 15 16 17 18 19 20 21 22 23 24 25 26 27 28 29 30 31 32 33 34 35 36 37 38 39 40 41 42 43 44 45 46 47 48 49 50
000
ASUS45 KREV 280310
RWRNV
NEVADA REGIONAL WEATHER ROUNDUP
NATIONAL WEATHER SERVICE RENO NV
800 PM PDT WED AUG 27 2014

NOTE: "FAIR" INDICATES FEW OR NO CLOUDS BELOW 12,000 FEET WITH NO
SIGNIFICANT WEATHER AND/OR OBSTRUCTIONS TO VISIBILITY.

NVZ001-003-004-280400-
WESTERN NEVADA

CITY           SKY/WX    TMP DP  RH WIND       PRES   REMARKS
RENO           CLEAR     84  34  16 NE6       30.14R
CARSON CITY    FAIR      81  30  16 N6        30.17R
MINDEN         FAIR      77  45  31 W12G17    30.18R
FALLON         PTCLDY    80  33  18 E6        30.11S
LOVELOCK       CLEAR     76  36  23 S7        30.10R
HAWTHORNE      CLEAR     81  32  17 CALM      30.14R
$$

NVZ002-CAZ072-073-280400-
NORTHERN AND CENTRAL SIERRA

CITY           SKY/WX    TMP DP  RH WIND       PRES   REMARKS
S. LAKE TAHOE  CLEAR     68  44  42 S5        30.30R
TRUCKEE        CLEAR     68  45  42 SW5       30.29R
SQUAW VLY 8000 NOT AVBL
SUSANVILLE     CLEAR     82  41  23 W10G20    30.13R
BLUE CANYON    CLEAR     70  43  37 W3        30.28R
MAMMOTH LAKES  FAIR      68  36  30 W9        30.34R
BRIDGEPORT     FAIR      70  38  31 W8        30.30R
$$

NVZ030-031-036-280400-
NORTHERN NEVADA

CITY           SKY/WX    TMP DP  RH WIND       PRES   REMARKS
ELKO           CLEAR     70  37  29 SW3       30.19R
WINNEMUCCA     CLEAR     74  35  24 E5        30.14R
WENDOVER       CLEAR     75  41  29 S8        30.18R
$$

NVZ035-037-280400-
CENTRAL NEVADA

CITY           SKY/WX    TMP DP  RH WIND       PRES   REMARKS
ELY            CLEAR     60  42  51 CALM      30.30R
EUREKA           N/A     65  36  34 N5        30.27R
$$

NVZ013-014-280400-
SOUTH CENTRAL NEVADA

CITY           SKY/WX    TMP DP  RH WIND       PRES   REMARKS
TONOPAH        CLEAR     75  26  16 W8        30.21R
$$

NVZ017-020-022-280400-
SOUTHERN NEVADA

CITY           SKY/WX    TMP DP  RH WIND       PRES   REMARKS
LAS VEGAS      CLEAR     92  35  13 SE6       29.96R
N. LAS VEGAS   CLEAR     91  32  12 SE3       29.99R
NELLIS AFB     CLEAR     92  35  13 SE7       29.97R
HENDERSON      CLEAR     89  37  16 SE3       30.03R
MERCURY        CLEAR     83  29  14 W5        30.06R
$$



USA.gov is the U.S. government's official web portal to all federal, state and local government web resources and services.